Location: Julian California
(33.0790°N, 116.6010°W)
Time: 21:44:56
(UTC-08:00)

Meteor 2-2 Rocket - Pass Details

Date: 12 July 2018
Orbit: 852 x 929 km, 81.3° (Epoch: 18 November)

Event Time Altitude Azimuth Distance (km) Brightness Sun altitude
Rises 20:47:11 0° 353° (N) 3,457 8.1 -9.9°
Reaches altitude 10° 20:49:36 10° 354° (N) 2,526 7.3 -10.3°
Maximum altitude 20:55:22 82° 82° (E) 897 4.3 -11.3°
Drops below altitude 10° 21:01:13 10° 170° (S) 2,564 6.3 -12.2°
Enters shadow 21:02:17 - 171° (S) 2,977 6.6 -12.4°
